Location: Krasnoyarskiy Pitomnik
(51.1333°N, 71.6167°E)
Time: 09:45:06
(UTC+00:00)

Cosmos 1455 Rocket - Pass Details

Date: 22 October 2021
Orbit: 604 x 630 km, 82.5° (Epoch: 06 December)

Event Time Altitude Azimuth Distance (km) Brightness Sun altitude
Rises 13:19:20 0° 187° (S) 2,891 6.6 -12.1°
Reaches altitude 10° 13:21:33 10° 187° (S) 1,994 5.8 -12.4°
Maximum altitude 13:25:59 85° 100° (E) 638 3.0 -13.1°
Drops below altitude 10° 13:30:28 10° 11° (NNE) 2,021 5.6 -13.8°
Sets 13:32:44 0° 11° (NNE) 2,936 6.4 -14.2°
